,,Stat6,,Stat2,,Stat8,,Stat9,,Stat10,,Wind1,,Wind1,
time,status,PA1M_AVG,status,PR1M_SUM,status,RH1M_AVG,status,SR1M_AVG,status,TA1M_AVG,status,W1dAve1m,status,W1sAve1m,
2006-03-15, 00:00:00,VALID,919.42,VALID,0,VALID,97.3299,VALID,-0.0509425,VALID,18.5718,VALID,106,VALID,0,
2006-03-15, 00:01:00,VALID,919.405,VALID,0,VALID,97.7953,VALID,-0.0169808,VALID,18.6243,VALID,106,VALID,0.00114329,
2006-03-15, 00:02:00,VALID,919.393,VALID,0,VALID,97.6999,VALID,-0.0339617,VALID,18.508,VALID,106,VALID,0,
2006-03-15, 00:03:00,VALID,919.415,VALID,0,VALID,98.1132,VALID,-0.0509425,VALID,18.4774,VALID,106,VALID,0,
2006-03-15, 00:04:00,VALID,919.414,VALID,0,VALID,98.5112,VALID,-0.0339617,VALID,18.4808,VALID,106,VALID,0,
2006-03-15, 00:05:00,VALID,919.428,VALID,0,VALID,98.9168,VALID,-0.0169808,VALID,18.6114,VALID,106,VALID,0,
2006-03-15, 00:06:00,VALID,919.431,VALID,0,VALID,99.1712,VALID,-0.0169808,VALID,18.5599,VALID,106,VALID,0,
2006-03-15, 00:07:00,VALID,919.433,VALID,0,VALID,98.8037,VALID,-0.0339617,VALID,18.5413,VALID,106,VALID,0,
2006-03-15, 00:08:00,VALID,919.415,VALID,0,VALID,98.3523,VALID,-0.0339617,VALID,18.5416,VALID,106,VALID,0,
2006-03-15, 00:09:00,VALID,919.417,VALID,0,VALID,98.412,VALID,-0.0509425,VALID,18.5338,VALID,106,VALID,0,
2006-03-15, 00:10:00,VALID,919.404,VALID,0,VALID,98.2658,VALID,-0.0509425,VALID,18.6088,VALID,106,VALID,0,
2006-03-15, 00:11:00,VALID,919.39,VALID,0,VALID,98.3116,VALID,-0.0849042,VALID,18.5029,VALID,106,VALID,0,
2006-03-15, 00:12:00,VALID,919.363,VALID,0,VALID,98.5036,VALID,-0.0679233,VALID,18.555,VALID,106,VALID,0,
2006-03-15, 00:13:00,VALID,919.346,VALID,0,VALID,98.6193,VALID,-0.0169808,VALID,18.5331,VALID,106,VALID,0,
2006-03-15, 00:14:00,VALID,919.328,VALID,0,VALID,98.4502,VALID,-0.0509425,VALID,18.4402,VALID,71,VALID,0.133371,
2006-03-15, 00:15:00,VALID,919.314,VALID,0,VALID,98.3167,VALID,-0.0339617,VALID,18.4915,VALID,340,VALID,0.397347,
2006-03-15, 00:16:00,VALID,919.309,VALID,0,VALID,98.5544,VALID,-0.0339617,VALID,18.4369,VALID,339,VALID,0.283008,
2006-03-15, 00:17:00,VALID,919.307,VALID,0,VALID,98.9588,VALID,-0.0509425,VALID,18.5244,VALID,339,VALID,0.00952744,
2006-03-15, 00:18:00,VALID,919.298,VALID,0,VALID,99.072,VALID,-0.0339617,VALID,18.6743,VALID,339,VALID,0.109561,
2006-03-15, 00:19:00,VALID,919.307,VALID,0,VALID,99.2793,VALID,-0.0339617,VALID,18.6366,VALID,339,VALID,0.0203125,
2006-03-15, 00:20:00,VALID,919.307,VALID,0,VALID,98.6943,VALID,-0.0339617,VALID,18.6496,VALID,339,VALID,0,
2006-03-15, 00:21:00,VALID,919.31,VALID,0,VALID,98.1208,VALID,-0.0339617,VALID,18.6003,VALID,339,VALID,0,
2006-03-15, 00:22:00,VALID,919.309,VALID,0,VALID,98.2531,VALID,-0.101885,VALID,18.6189,VALID,339,VALID,0,
2006-03-15, 00:23:00,VALID,919.313,VALID,0,VALID,98.3344,VALID,-0.0679233,VALID,18.6223,VALID,339,VALID,0,
2006-03-15, 00:24:00,VALID,919.306,VALID,0,VALID,98.4985,VALID,0.0679233,VALID,18.5784,VALID,339,VALID,0,
2006-03-15, 00:25:00,VALID,919.311,VALID,0,VALID,98.6778,VALID,0.0849042,VALID,18.5119,VALID,339,VALID,0.0949653,
2006-03-15, 00:26:00,VALID,919.3,VALID,0,VALID,98.5239,VALID,0.0339617,VALID,18.5761,VALID,339,VALID,0.330305,
2006-03-15, 00:27:00,VALID,919.291,VALID,0,VALID,98.5672,VALID,0.0509425,VALID,18.5821,VALID,346,VALID,0.419792,
2006-03-15, 00:28:00,VALID,919.297,VALID,0,VALID,98.7274,VALID,0.0849042,VALID,18.441,VALID,100,VALID,0.637799,
2006-03-15, 00:29:00,VALID,919.303,VALID,0,VALID,98.9792,VALID,0.0509425,VALID,18.5084,VALID,100,VALID,0.677144,
2006-03-15, 00:30:00,VALID,919.287,VALID,0,VALID,98.8355,VALID,0.0679233,VALID,18.5491,VALID,100,VALID,0.569922,
2006-03-15, 00:31:00,VALID,919.289,VALID,0,VALID,98.735,VALID,0.0339617,VALID,18.4357,VALID,100,VALID,0.55451,
2006-03-15, 00:32:00,VALID,919.28,VALID,0,VALID,98.6956,VALID,0.0509425,VALID,18.4488,VALID,100,VALID,0.580602,
2006-03-15, 00:33:00,VALID,919.272,VALID,0,VALID,98.7973,VALID,0.0339617,VALID,18.4589,VALID,100,VALID,0.71875,
2006-03-15, 00:34:00,VALID,919.271,VALID,0,VALID,99.1737,VALID,0.0339617,VALID,18.5658,VALID,101,VALID,0.829368,
2006-03-15, 00:35:00,VALID,919.244,VALID,0,VALID,99.3721,VALID,0.0339617,VALID,18.5198,VALID,101,VALID,0.711739,
2006-03-15, 00:36:00,VALID,919.237,VALID,0,VALID,99.3657,VALID,0.0339617,VALID,18.4442,VALID,111,VALID,0.678163,
2006-03-15, 00:37:00,VALID,919.206,VALID,0,VALID,99.442,VALID,0.0169808,VALID,18.4238,VALID,121,VALID,0.490327,
2006-03-15, 00:38:00,VALID,919.18,VALID,0,VALID,99.4268,VALID,0.0339617,VALID,18.4644,VALID,121,VALID,0.396909,
2006-03-15, 00:39:00,VALID,919.155,VALID,0,VALID,99.4166,VALID,0.0509425,VALID,18.569,VALID,121,VALID,0.429155,
2006-03-15, 00:40:00,VALID,919.145,VALID,0,VALID,99.3746,VALID,0.0169808,VALID,18.5182,VALID,121,VALID,0.434126,
2006-03-15, 00:41:00,VALID,919.123,VALID,0,VALID,99.2907,VALID,0.0169808,VALID,18.4717,VALID,121,VALID,0.510538,
2006-03-15, 00:42:00,VALID,919.108,VALID,0,VALID,99.2271,VALID,0.0339617,VALID,18.4877,VALID,121,VALID,0.503405,
2006-03-15, 00:43:00,VALID,919.096,VALID,0,VALID,99.2487,VALID,0.0679233,VALID,18.4422,VALID,121,VALID,0.697656,
2006-03-15, 00:44:00,VALID,919.075,VALID,0,VALID,99.6213,VALID,0.0339617,VALID,18.5593,VALID,119,VALID,0.982195,
2006-03-15, 00:45:00,VALID,919.068,VALID,0,VALID,99.7612,VALID,0.0339617,VALID,18.603,VALID,116,VALID,0.967297,
2006-03-15, 00:46:00,VALID,919.078,VALID,0,VALID,99.4611,VALID,0.0509425,VALID,18.6494,VALID,109,VALID,0.937318,
2006-03-15, 00:47:00,VALID,919.067,VALID,0,VALID,99.2017,VALID,0.0509425,VALID,18.7856,VALID,108,VALID,0.919872,
2006-03-15, 00:48:00,VALID,919.07,VALID,0,VALID,98.8227,VALID,0.0509425,VALID,19.0043,VALID,108,VALID,0.898801,
2006-03-15, 00:49:00,VALID,919.055,VALID,0,VALID,98.5074,VALID,0.0169808,VALID,18.8009,VALID,108,VALID,1.00438,
2006-03-15, 00:50:00,VALID,919.055,VALID,0,VALID,98.0407,VALID,0.0509425,VALID,18.8973,VALID,111,VALID,0.835227,
2006-03-15, 00:51:00,VALID,919.036,VALID,0,VALID,97.5842,VALID,0.0339617,VALID,18.9467,VALID,132,VALID,0.786701,
2006-03-15, 00:52:00,VALID,919.023,VALID,0,VALID,97.6402,VALID,0.0509425,VALID,18.7888,VALID,132,VALID,0.559659,
2006-03-15, 00:53:00,VALID,919.017,VALID,0,VALID,97.9568,VALID,0.0679233,VALID,18.8826,VALID,136,VALID,0.805596,
2006-03-15, 00:54:00,VALID,918.997,VALID,0,VALID,98.4171,VALID,-0.0169808,VALID,18.9269,VALID,146,VALID,0.826172,
2006-03-15, 00:55:00,VALID,918.982,VALID,0,VALID,98.9397,VALID,-0.0169808,VALID,18.7377,VALID,148,VALID,0.928089,
2006-03-15, 00:56:00,VALID,918.964,VALID,0,VALID,99.3238,VALID,-0.0339617,VALID,18.9023,VALID,149,VALID,0.623326,
2006-03-15, 00:57:00,VALID,918.958,VALID,0,VALID,99.1496,VALID,-0.0339617,VALID,18.7663,VALID,149,VALID,0.444196,
2006-03-15, 00:58:00,VALID,918.953,VALID,0,VALID,98.9448,VALID,-0.0339617,VALID,18.7136,VALID,149,VALID,0.263148,
2006-03-15, 00:59:00,VALID,918.932,VALID,0,VALID,99.0224,VALID,-0.0679233,VALID,18.6682,VALID,149,VALID,0.354725,
2006-03-15, 01:00:00,VALID,918.913,VALID,0,VALID,99.0961,VALID,-0.0509425,VALID,18.3341,VALID,149,VALID,0.339026,
2006-03-15, 01:01:00,VALID,918.901,VALID,0,VALID,99.2271,VALID,-0.0679233,VALID,18.5379,VALID,149,VALID,0.551525,
2006-03-15, 01:02:00,VALID,918.884,VALID,0,VALID,99.2335,VALID,-0.0679233,VALID,18.5085,VALID,149,VALID,0.0889863,
2006-03-15, 01:03:00,VALID,918.867,VALID,0,VALID,99.292,VALID,-0.0169808,VALID,18.3852,VALID,149,VALID,0.221839,
2006-03-15, 01:04:00,VALID,918.837,VALID,0,VALID,99.3835,VALID,-0.0849042,VALID,18.6207,VALID,149,VALID,0.496603,
2006-03-15, 01:05:00,VALID,918.812,VALID,0,VALID,99.4051,VALID,-0.0339617,VALID,18.2991,VALID,149,VALID,0.408918,
2006-03-15, 01:06:00,VALID,918.784,VALID,0,VALID,99.4484,VALID,-0.101885,VALID,18.2998,VALID,149,VALID,0.433685,
2006-03-15, 01:07:00,VALID,918.761,VALID,0,VALID,99.3263,VALID,-0.0509425,VALID,18.3883,VALID,149,VALID,0.400298,
2006-03-15, 01:08:00,VALID,918.747,VALID,0,VALID,99.3543,VALID,-0.0169808,VALID,18.1317,VALID,149,VALID,0.263849,
2006-03-15, 01:09:00,VALID,918.717,VALID,0,VALID,99.5005,VALID,0.0339617,VALID,18.17,VALID,149,VALID,0.43532,
2006-03-15, 01:10:00,VALID,918.69,VALID,0,VALID,99.7091,VALID,0.0339617,VALID,18.1924,VALID,145,VALID,0.582217,
2006-03-15, 01:11:00,VALID,918.667,VALID,0,VALID,99.9802,VALID,0,VALID,18.2061,VALID,137,VALID,0.535065,
2006-03-15, 01:12:00,VALID,918.644,VALID,0,VALID,100,VALID,0.0169808,VALID,18.2334,VALID,139,VALID,0.712426,
2006-03-15, 01:13:00,VALID,918.623,VALID,0,VALID,100,VALID,0.0169808,VALID,18.341,VALID,144,VALID,0.842262,
2006-03-15, 01:14:00,VALID,918.6,VALID,0,VALID,100,VALID,-0.0849042,VALID,18.2683,VALID,144,VALID,0.930831,
2006-03-15, 01:15:00,VALID,918.572,VALID,0,VALID,100,VALID,-0.0679233,VALID,18.4588,VALID,144,VALID,0.889353,
2006-03-15, 01:16:00,VALID,918.57,VALID,0,VALID,100,VALID,-0.0509425,VALID,17.8909,VALID,146,VALID,0.994913,
2006-03-15, 01:17:00,VALID,918.547,VALID,0,VALID,100,VALID,-0.0849042,VALID,18.389,VALID,143,VALID,0.86619,
2006-03-15, 01:18:00,VALID,918.535,VALID,0,VALID,100,VALID,-0.0679233,VALID,18.4517,VALID,142,VALID,0.86814,
2006-03-15, 01:19:00,VALID,918.539,VALID,0,VALID,100,VALID,-0.0339617,VALID,18.4055,VALID,143,VALID,1.01272,
2006-03-15, 01:20:00,VALID,918.518,VALID,0,VALID,100,VALID,-0.0509425,VALID,18.4109,VALID,147,VALID,0.74782,
2006-03-15, 01:21:00,VALID,918.51,VALID,0,VALID,100,VALID,-0.0509425,VALID,18.6044,VALID,150,VALID,0.962984,
2006-03-15, 01:22:00,VALID,918.481,VALID,0,VALID,100,VALID,-0.0509425,VALID,18.5406,VALID,138,VALID,0.915015,
2006-03-15, 01:23:00,VALID,918.478,VALID,0,VALID,99.999,VALID,-0.0509425,VALID,18.5879,VALID,134,VALID,1.0069,
2006-03-15, 01:24:00,VALID,918.472,VALID,0,VALID,100,VALID,-0.0339617,VALID,18.1756,VALID,140,VALID,1.08683,
2006-03-15, 01:25:00,VALID,918.46,VALID,0,VALID,100,VALID,-0.0679233,VALID,18.6465,VALID,138,VALID,0.868229,
2006-03-15, 01:26:00,VALID,918.452,VALID,0,VALID,100,VALID,-0.101885,VALID,18.4346,VALID,128,VALID,0.956944,
2006-03-15, 01:27:00,VALID,918.441,VALID,0,VALID,100,VALID,-0.0509425,VALID,18.4552,VALID,133,VALID,1.06074,
2006-03-15, 01:28:00,VALID,918.434,VALID,0,VALID,100,VALID,-0.0679233,VALID,18.4713,VALID,134,VALID,0.833394,
2006-03-15, 01:29:00,VALID,918.417,VALID,0,VALID,100,VALID,-0.0849042,VALID,18.4809,VALID,128,VALID,1.05178,
2006-03-15, 01:30:00,VALID,918.403,VALID,0,VALID,100,VALID,-0.0509425,VALID,18.099,VALID,139,VALID,0.934549,
2006-03-15, 01:31:00,VALID,918.412,VALID,0,VALID,100,VALID,-0.0849042,VALID,18.4257,VALID,136,VALID,0.984549,
2006-03-15, 01:32:00,VALID,918.409,VALID,0,VALID,100,VALID,0.0339617,VALID,18.4038,VALID,133,VALID,0.974355,
2006-03-15, 01:33:00,VALID,918.422,VALID,0,VALID,100,VALID,0.0339617,VALID,18.4736,VALID,141,VALID,0.861683,
2006-03-15, 01:34:00,VALID,918.41,VALID,0,VALID,100,VALID,0.0339617,VALID,18.2589,VALID,137,VALID,0.831321,
2006-03-15, 01:35:00,VALID,918.415,VALID,0,VALID,100,VALID,0.0509425,VALID,18.2227,VALID,137,VALID,0.712271,
2006-03-15, 01:36:00,VALID,918.413,VALID,0,VALID,100,VALID,0.0339617,VALID,18.3295,VALID,137,VALID,0.704985,
2006-03-15, 01:37:00,VALID,918.415,VALID,0,VALID,100,VALID,0,VALID,18.5312,VALID,137,VALID,0.760156,
2006-03-15, 01:38:00,VALID,918.397,VALID,0,VALID,100,VALID,0.0509425,VALID,18.4509,VALID,137,VALID,0.530107,
2006-03-15, 01:39:00,VALID,918.398,VALID,0,VALID,100,VALID,0.0679233,VALID,18.1898,VALID,136,VALID,0.679348,
2006-03-15, 01:40:00,VALID,918.393,VALID,0,VALID,100,VALID,0.0509425,VALID,18.5791,VALID,133,VALID,0.759375,
2006-03-15, 01:41:00,VALID,918.381,VALID,0,VALID,100,VALID,0.0169808,VALID,18.2501,VALID,130,VALID,0.973474,
2006-03-15, 01:42:00,VALID,918.387,VALID,0,VALID,100,VALID,0,VALID,18.5959,VALID,128,VALID,1.02448,
2006-03-15, 01:43:00,VALID,918.379,VALID,0,VALID,100,VALID,0.0679233,VALID,18.6961,VALID,114,VALID,1.2351,
2006-03-15, 01:44:00,VALID,918.377,VALID,0,VALID,100,VALID,0,VALID,18.2001,VALID,99,VALID,1.26672,
2006-03-15, 01:45:00,VALID,918.371,VALID,0,VALID,100,VALID,0.0339617,VALID,18.3743,VALID,90,VALID,1.22309,
2006-03-15, 01:46:00,VALID,918.375,VALID,0,VALID,100,VALID,0,VALID,18.9405,VALID,93,VALID,1.34746,
2006-03-15, 01:47:00,VALID,918.365,VALID,0,VALID,100,VALID,0,VALID,18.2778,VALID,98,VALID,1.27422,
2006-03-15, 01:48:00,VALID,918.371,VALID,0,VALID,100,VALID,0.0509425,VALID,18.3866,VALID,103,VALID,1.07656,
2006-03-15, 01:49:00,VALID,918.374,VALID,0,VALID,100,VALID,0.0339617,VALID,18.3405,VALID,110,VALID,1.20512,
2006-03-15, 01:50:00,VALID,918.386,VALID,0,VALID,100,VALID,0.0169808,VALID,18.0283,VALID,109,VALID,0.710029,
2006-03-15, 01:51:00,VALID,918.4,VALID,0,VALID,100,VALID,0.0339617,VALID,18.2344,VALID,114,VALID,0.724432,
2006-03-15, 01:52:00,VALID,918.381,VALID,0,VALID,100,VALID,0.0339617,VALID,18.3552,VALID,116,VALID,0.498183,
2006-03-15, 01:53:00,VALID,918.382,VALID,0,VALID,100,VALID,0.0339617,VALID,18.3394,VALID,119,VALID,0.453624,
2006-03-15, 01:54:00,VALID,918.362,VALID,0,VALID,100,VALID,-0.0509425,VALID,18.3092,VALID,119,VALID,0.832422,
2006-03-15, 01:55:00,VALID,918.343,VALID,0,VALID,100,VALID,-0.0509425,VALID,18.1753,VALID,119,VALID,0.953303,
2006-03-15, 01:56:00,VALID,918.317,VALID,0,VALID,100,VALID,-0.0679233,VALID,18.4329,VALID,119,VALID,1.12148,
2006-03-15, 01:57:00,VALID,918.292,VALID,0,VALID,100,VALID,-0.0509425,VALID,18.1842,VALID,119,VALID,1.20058,
2006-03-15, 01:58:00,VALID,918.274,VALID,0,VALID,100,VALID,-0.0849042,VALID,18.4577,VALID,113,VALID,1.18078,
2006-03-15, 01:59:00,VALID,918.253,VALID,0,VALID,100,VALID,-0.0509425,VALID,18.2552,VALID,113,VALID,1.35847,
2006-03-15, 02:00:00,VALID,918.263,VALID,0,VALID,100,VALID,-0.0339617,VALID,18.1979,VALID,113,VALID,1.41539,
2006-03-15, 02:01:00,VALID,918.253,VALID,0,VALID,100,VALID,-0.0679233,VALID,18.2846,VALID,114,VALID,1.38917,
2006-03-15, 02:02:00,VALID,918.238,VALID,0,VALID,100,VALID,-0.0849042,VALID,18.0635,VALID,119,VALID,1.46458,
2006-03-15, 02:03:00,VALID,918.227,VALID,0,VALID,100,VALID,-0.0849042,VALID,18.2466,VALID,119,VALID,1.6434,
2006-03-15, 02:04:00,VALID,918.193,VALID,0,VALID,100,VALID,-0.0849042,VALID,18.0607,VALID,125,VALID,1.54297,
2006-03-15, 02:05:00,VALID,918.162,VALID,0,VALID,100,VALID,-0.0849042,VALID,18.2108,VALID,127,VALID,1.4742,
2006-03-15, 02:06:00,VALID,918.128,VALID,0,VALID,100,VALID,-0.0849042,VALID,18.1911,VALID,133,VALID,1.46403,
2006-03-15, 02:07:00,VALID,918.111,VALID,0,VALID,100,VALID,-0.0509425,VALID,18.2083,VALID,129,VALID,1.27198,
2006-03-15, 02:08:00,VALID,918.106,VALID,0,VALID,100,VALID,0.0679233,VALID,18.1388,VALID,134,VALID,1.34395,
2006-03-15, 02:09:00,VALID,918.091,VALID,0,VALID,100,VALID,0.0509425,VALID,18.4031,VALID,134,VALID,1.16704,
2006-03-15, 02:10:00,VALID,918.083,VALID,0,VALID,100,VALID,0.0339617,VALID,18.1793,VALID,139,VALID,1.13988,
2006-03-15, 02:11:00,VALID,918.086,VALID,0,VALID,100,VALID,0.0169808,VALID,18.1413,VALID,136,VALID,0.969283,
2006-03-15, 02:12:00,VALID,918.093,VALID,0,VALID,100,VALID,0.0339617,VALID,18.2012,VALID,139,VALID,1.01065,
2006-03-15, 02:13:00,VALID,918.11,VALID,0,VALID,100,VALID,0.0339617,VALID,18.3734,VALID,141,VALID,0.90516,
2006-03-15, 02:14:00,VALID,918.109,VALID,0,VALID,100,VALID,0.0169808,VALID,18.2124,VALID,133,VALID,0.99891,
2006-03-15, 02:15:00,VALID,918.121,VALID,0,VALID,100,VALID,0.0339617,VALID,18.1894,VALID,134,VALID,1.10227,
2006-03-15, 02:16:00,VALID,918.119,VALID,0,VALID,100,VALID,0.0679233,VALID,18.1088,VALID,131,VALID,1.22351,
2006-03-15, 02:17:00,VALID,918.12,VALID,0,VALID,100,VALID,0.0339617,VALID,18.084,VALID,124,VALID,1.23092,
2006-03-15, 02:18:00,VALID,918.112,VALID,0,VALID,100,VALID,0,VALID,18.2408,VALID,122,VALID,1.30859,
2006-03-15, 02:19:00,VALID,918.105,VALID,0,VALID,100,VALID,0.0169808,VALID,18.3163,VALID,131,VALID,1.23177,
2006-03-15, 02:20:00,VALID,918.104,VALID,0,VALID,100,VALID,0.0169808,VALID,18.1808,VALID,118,VALID,1.51048,
2006-03-15, 02:21:00,VALID,918.093,VALID,0,VALID,99.9814,VALID,0.0169808,VALID,18.3513,VALID,126,VALID,1.38086,
2006-03-15, 02:22:00,VALID,918.083,VALID,0,VALID,99.8413,VALID,0.0169808,VALID,18.1295,VALID,119,VALID,1.17116,
2006-03-15, 02:23:00,VALID,918.084,VALID,0,VALID,99.7447,VALID,-0.0169808,VALID,18.3637,VALID,114,VALID,1.10898,
2006-03-15, 02:24:00,VALID,918.083,VALID,0,VALID,99.6544,VALID,-0.0169808,VALID,18.4503,VALID,123,VALID,1.17111,
2006-03-15, 02:25:00,VALID,918.082,VALID,0,VALID,99.5361,VALID,-0.0169808,VALID,18.271,VALID,119,VALID,1.14297,
2006-03-15, 02:26:00,VALID,918.088,VALID,0,VALID,99.3352,VALID,-0.0509425,VALID,18.3245,VALID,116,VALID,1.01944,
2006-03-15, 02:27:00,VALID,918.086,VALID,0,VALID,99.264,VALID,-0.0169808,VALID,18.4203,VALID,116,VALID,1.18527,
2006-03-15, 02:28:00,VALID,918.07,VALID,0,VALID,99.1839,VALID,-0.0339617,VALID,18.4166,VALID,111,VALID,1.18665,
2006-03-15, 02:29:00,VALID,918.058,VALID,0,VALID,99.0326,VALID,-0.0169808,VALID,18.379,VALID,102,VALID,0.900799,
2006-03-15, 02:30:00,VALID,918.04,VALID,0,VALID,99.0402,VALID,-0.0169808,VALID,18.5623,VALID,110,VALID,0.934338,
2006-03-15, 02:31:00,VALID,918.022,VALID,0,VALID,99.0287,VALID,-0.0509425,VALID,18.5102,VALID,104,VALID,0.972656,
2006-03-15, 02:32:00,VALID,917.984,VALID,0,VALID,99.0186,VALID,-0.0169808,VALID,18.4108,VALID,98,VALID,0.853659,
2006-03-15, 02:33:00,VALID,917.954,VALID,0,VALID,98.955,VALID,-0.0169808,VALID,18.1427,VALID,94,VALID,0.928472,
2006-03-15, 02:34:00,VALID,917.943,VALID,0,VALID,99.0033,VALID,-0.0169808,VALID,18.2372,VALID,94,VALID,1.05692,
2006-03-15, 02:35:00,VALID,917.906,VALID,0,VALID,99.1775,VALID,0,VALID,17.9154,VALID,103,VALID,1.32262,
2006-03-15, 02:36:00,VALID,917.885,VALID,0,VALID,99.1292,VALID,0.0169808,VALID,18.4498,VALID,98,VALID,0.953835,
2006-03-15, 02:37:00,VALID,917.872,VALID,0,VALID,99.1496,VALID,-0.0339617,VALID,18.2773,VALID,101,VALID,1.04015,
2006-03-15, 02:38:00,VALID,917.841,VALID,0,VALID,99.2793,VALID,0,VALID,18.45,VALID,109,VALID,0.96968,
2006-03-15, 02:39:00,VALID,917.825,VALID,0,VALID,99.2754,VALID,-0.0339617,VALID,18.233,VALID,109,VALID,0.82777,
2006-03-15, 02:40:00,VALID,917.794,VALID,0,VALID,99.2958,VALID,-0.0339617,VALID,18.2309,VALID,108,VALID,0.980374,
2006-03-15, 02:41:00,VALID,917.765,VALID,0,VALID,99.3797,VALID,-0.0509425,VALID,18.5189,VALID,103,VALID,1.28165,
2006-03-15, 02:42:00,VALID,917.734,VALID,0,VALID,99.5069,VALID,-0.0169808,VALID,18.3898,VALID,106,VALID,1.27418,
2006-03-15, 02:43:00,VALID,917.709,VALID,0,VALID,99.4013,VALID,-0.0339617,VALID,18.1819,VALID,103,VALID,1.26649,
2006-03-15, 02:44:00,VALID,917.701,VALID,0,VALID,99.4128,VALID,-0.0169808,VALID,18.3654,VALID,109,VALID,1.20767,
2006-03-15, 02:45:00,VALID,917.679,VALID,0,VALID,99.5145,VALID,-0.0679233,VALID,18.3984,VALID,113,VALID,1.6459,
2006-03-15, 02:46:00,VALID,917.672,VALID,0,VALID,99.4611,VALID,-0.0169808,VALID,18.4196,VALID,120,VALID,1.57775,
2006-03-15, 02:47:00,VALID,917.671,VALID,0,VALID,99.4026,VALID,-0.0339617,VALID,18.3874,VALID,120,VALID,1.59253,
2006-03-15, 02:48:00,VALID,917.667,VALID,0,VALID,99.3238,VALID,-0.0339617,VALID,18.2868,VALID,128,VALID,1.50236,
2006-03-15, 02:49:00,VALID,917.665,VALID,0,VALID,99.2462,VALID,-0.0679233,VALID,18.4288,VALID,129,VALID,1.01738,
2006-03-15, 02:50:00,VALID,917.656,VALID,0,VALID,99.2449,VALID,-0.0169808,VALID,18.2323,VALID,131,VALID,1.21633,
2006-03-15, 02:51:00,VALID,917.637,VALID,0,VALID,99.2055,VALID,0,VALID,18.3287,VALID,122,VALID,1.36488,
2006-03-15, 02:52:00,VALID,917.611,VALID,0,VALID,99.2653,VALID,-0.0339617,VALID,18.059,VALID,122,VALID,1.16206,
2006-03-15, 02:53:00,VALID,917.593,VALID,0,VALID,99.25,VALID,0,VALID,18.2796,VALID,128,VALID,1.0957,
2006-03-15, 02:54:00,VALID,917.569,VALID,0,VALID,99.2729,VALID,-0.0509425,VALID,18.2413,VALID,134,VALID,0.931286,
2006-03-15, 02:55:00,VALID,917.556,VALID,0,VALID,99.2983,VALID,-0.0339617,VALID,18.2614,VALID,137,VALID,0.791424,
2006-03-15, 02:56:00,VALID,917.541,VALID,0,VALID,99.3543,VALID,0,VALID,18.2944,VALID,138,VALID,1.00446,
2006-03-15, 02:57:00,VALID,917.534,VALID,0,VALID,99.47,VALID,0,VALID,18.3291,VALID,125,VALID,1.01199,
2006-03-15, 02:58:00,VALID,917.522,VALID,0,VALID,99.5832,VALID,-0.0339617,VALID,18.0873,VALID,121,VALID,1.01113,
2006-03-15, 02:59:00,VALID,917.512,VALID,0,VALID,99.7396,VALID,-0.0169808,VALID,18.0797,VALID,116,VALID,1.30202,
2006-03-15, 03:00:00,VALID,917.496,VALID,0,VALID,99.7358,VALID,-0.0169808,VALID,18.5361,VALID,115,VALID,1.32546,
2006-03-15, 03:01:00,VALID,917.495,VALID,0,VALID,99.6709,VALID,-0.0339617,VALID,18.4183,VALID,118,VALID,1.07431,
2006-03-15, 03:02:00,VALID,917.488,VALID,0,VALID,99.5361,VALID,-0.0339617,VALID,18.2105,VALID,122,VALID,1.06993,
2006-03-15, 03:03:00,VALID,917.479,VALID,0,VALID,99.3238,VALID,-0.0169808,VALID,17.844,VALID,127,VALID,1.06377,
2006-03-15, 03:04:00,VALID,917.478,VALID,0,VALID,99.0987,VALID,-0.0339617,VALID,18.1552,VALID,133,VALID,1.25019,
2006-03-15, 03:05:00,VALID,917.47,VALID,0,VALID,98.8151,VALID,-0.0339617,VALID,18.1862,VALID,134,VALID,0.911882,
2006-03-15, 03:06:00,VALID,917.464,VALID,0,VALID,98.585,VALID,0,VALID,18.2056,VALID,119,VALID,0.613186,
2006-03-15, 03:07:00,VALID,917.46,VALID,0,VALID,98.3116,VALID,0,VALID,18.034,VALID,125,VALID,0.652071,
2006-03-15, 03:08:00,VALID,917.453,VALID,0,VALID,98.1869,VALID,0,VALID,18.1595,VALID,133,VALID,0.67569,
2006-03-15, 03:09:00,VALID,917.458,VALID,0,VALID,98.206,VALID,0,VALID,18.2019,VALID,127,VALID,0.422991,
2006-03-15, 03:10:00,VALID,917.461,VALID,0,VALID,98.2467,VALID,0,VALID,18.4469,VALID,116,VALID,0.365039,
2006-03-15, 03:11:00,VALID,917.47,VALID,0,VALID,98.1984,VALID,-0.0169808,VALID,18.1797,VALID,116,VALID,0.524182,
2006-03-15, 03:12:00,VALID,917.462,VALID,0,VALID,98.0916,VALID,0,VALID,18.3111,VALID,119,VALID,0.866319,
2006-03-15, 03:13:00,VALID,917.452,VALID,0,VALID,98.1564,VALID,0,VALID,17.9669,VALID,116,VALID,0.939215,
2006-03-15, 03:14:00,VALID,917.443,VALID,0,VALID,98.2251,VALID,0,VALID,18.2058,VALID,115,VALID,0.958274,
2006-03-15, 03:15:00,VALID,917.414,VALID,0,VALID,98.2048,VALID,0.0169808,VALID,18.1256,VALID,112,VALID,1.09358,
2006-03-15, 03:16:00,VALID,917.38,VALID,0,VALID,98.3637,VALID,0.0169808,VALID,18.0852,VALID,120,VALID,1.36701,
2006-03-15, 03:17:00,VALID,917.364,VALID,0,VALID,98.4451,VALID,-0.0169808,VALID,18.3182,VALID,115,VALID,1.38192,
2006-03-15, 03:18:00,VALID,917.355,VALID,0,VALID,98.4336,VALID,0,VALID,18.2275,VALID,101,VALID,0.964558,
2006-03-15, 03:19:00,VALID,917.351,VALID,0,VALID,98.3993,VALID,-0.0169808,VALID,18.1271,VALID,119,VALID,1.2429,
2006-03-15, 03:20:00,VALID,917.338,VALID,0,VALID,98.3751,VALID,0,VALID,17.9967,VALID,122,VALID,1.26432,
2006-03-15, 03:21:00,VALID,917.346,VALID,0,VALID,98.3586,VALID,0,VALID,18.077,VALID,124,VALID,1.0158,
2006-03-15, 03:22:00,VALID,917.338,VALID,0,VALID,98.2429,VALID,0,VALID,18.3522,VALID,129,VALID,1.20785,
2006-03-15, 03:23:00,VALID,917.33,VALID,0,VALID,98.1272,VALID,0,VALID,18.2809,VALID,119,VALID,1.13449,
2006-03-15, 03:24:00,VALID,917.334,VALID,0,VALID,97.9682,VALID,0,VALID,18.1824,VALID,119,VALID,1.31463,
2006-03-15, 03:25:00,VALID,917.339,VALID,0,VALID,97.8919,VALID,0,VALID,18.3059,VALID,103,VALID,1.30376,
2006-03-15, 03:26:00,VALID,917.361,VALID,0,VALID,97.9148,VALID,0,VALID,18.5496,VALID,93,VALID,1.18895,
2006-03-15, 03:27:00,VALID,917.385,VALID,0,VALID,97.7355,VALID,0,VALID,18.4693,VALID,87,VALID,0.898624,
2006-03-15, 03:28:00,VALID,917.401,VALID,0,VALID,97.794,VALID,0,VALID,17.9813,VALID,97,VALID,0.897711,
2006-03-15, 03:29:00,VALID,917.409,VALID,0,VALID,97.8983,VALID,-0.0169808,VALID,18.2573,VALID,97,VALID,0.821801,
2006-03-15, 03:30:00,VALID,917.414,VALID,0,VALID,98.0954,VALID,0,VALID,18.3911,VALID,117,VALID,1.0119,
2006-03-15, 03:31:00,VALID,917.421,VALID,0,VALID,98.2798,VALID,0,VALID,18.4618,VALID,125,VALID,1.09357,
2006-03-15, 03:32:00,VALID,917.43,VALID,0,VALID,98.4362,VALID,-0.0169808,VALID,18.2579,VALID,129,VALID,0.959936,
2006-03-15, 03:33:00,VALID,917.443,VALID,0,VALID,98.5379,VALID,0,VALID,18.2038,VALID,141,VALID,0.910156,
2006-03-15, 03:34:00,VALID,917.458,VALID,0,VALID,98.6282,VALID,0.0339617,VALID,17.9056,VALID,150,VALID,0.628374,
2006-03-15, 03:35:00,VALID,917.476,VALID,0,VALID,98.7973,VALID,0,VALID,18.406,VALID,150,VALID,0.804487,
2006-03-15, 03:36:00,VALID,917.465,VALID,0,VALID,98.9092,VALID,-0.0169808,VALID,17.939,VALID,147,VALID,0.869549,